Location: Pedimozza
(42.0500°N, 9.3500°E)
Time: 16:10:27
(UTC+00:00)

Exosat Rocket - Pass Details

Date: 19 August 2019
Orbit: 760 x 2515 km, 72.3° (Epoch: 14 September)

Event Time Altitude Azimuth Distance (km) Brightness Sun altitude
Rises 19:44:43 0° 337° (NNW) 5,019 8.7 -15.4°
Reaches altitude 10° 19:48:21 10° 341° (NNW) 3,756 7.8 -15.9°
Maximum altitude 19:57:03 65° 62° (ENE) 1,272 4.4 -17.2°
Enters shadow 20:00:42 27° 137° (SE) 1,846 4.9 -17.8°
